TAX02JA DTTJ-LPPT

Flight info

Callsign TAX02JA
Flight time N/A
Altitude 34000
Route TINAP1A TINAP A856 KIRAS UZ147 DIMAO UZ888 YEMZO DCT ARZEW A44 TARIK M192 GATAS DCT AGIDO M192 ARPEX DCT BAZAS/N0458F350 T312 AMOTA/N0458F340 DCT OXACA DCT VASOR DCT UPULO UPULO2A
Aircraft A321/M-SDE3FGHIRWY/LB1

Departure

Time 2026-05-01 10:40
Airport Djerba Zarzis International Airport (DTTJ)

Arrival

Time N/A
Airport Lisbon Humberto Delgado Airport (LPPT)
Time Latitude Longitude Altitude Speed Heading
2026-05-01 10:17 33.87248 10.77384 22 ft 0 kts 128°
2026-05-01 10:32 33.87256 10.77372 22 ft 4 kts 126°
2026-05-01 10:32 33.87270 10.77345 23 ft 4 kts 117°
2026-05-01 10:32 33.87286 10.77284 22 ft 4 kts 86°
2026-05-01 10:33 33.87276 10.77254 22 ft 0 kts 26°
2026-05-01 10:35 33.87309 10.77273 23 ft 12 kts 20°
2026-05-01 10:35 33.87366 10.77235 21 ft 10 kts 275°
2026-05-01 10:35 33.87364 10.77150 21 ft 10 kts 268°
2026-05-01 10:35 33.87362 10.77062 21 ft 11 kts 268°
2026-05-01 10:36 33.87352 10.76708 20 ft 28 kts 268°
2026-05-01 10:36 33.87347 10.76496 20 ft 23 kts 268°
2026-05-01 10:36 33.87342 10.76315 19 ft 21 kts 268°
2026-05-01 10:37 33.87339 10.76140 18 ft 18 kts 271°
2026-05-01 10:37 33.87408 10.76048 20 ft 0 kts 356°
2026-05-01 10:38 33.87430 10.76047 18 ft 8 kts 357°
2026-05-01 10:38 33.87490 10.76065 19 ft 13 kts 43°
2026-05-01 10:38 33.87506 10.76157 19 ft 8 kts 88°
2026-05-01 10:39 33.87506 10.76164 19 ft 0 kts 88°
2026-05-01 10:39 33.87506 10.76166 19 ft 0 kts 88°
2026-05-01 10:39 33.87506 10.76167 19 ft 2 kts 88°
2026-05-01 10:40 33.87515 10.76502 19 ft 88 kts 88°
2026-05-01 10:40 33.87544 10.77573 28 ft 164 kts 87°
2026-05-01 10:40 33.87568 10.79086 473 ft 194 kts 87°
2026-05-01 10:40 33.87581 10.80811 1179 ft 210 kts 87°
2026-05-01 10:41 33.87334 10.82532 1986 ft 215 kts 117°
2026-05-01 10:41 33.86228 10.83709 2703 ft 224 kts 158°
2026-05-01 10:41 33.83418 10.82547 4101 ft 237 kts 240°
2026-05-01 10:42 33.83061 10.80625 4812 ft 237 kts 281°
2026-05-01 10:42 33.83755 10.78892 5475 ft 239 kts 314°
2026-05-01 10:42 33.84961 10.77390 5772 ft 262 kts 307°
2026-05-01 10:42 33.85735 10.75326 6181 ft 279 kts 285°
2026-05-01 10:43 33.86114 10.73009 6881 ft 285 kts 278°
2026-05-01 10:43 33.86394 10.70635 7647 ft 288 kts 278°
2026-05-01 10:43 33.86705 10.68239 8395 ft 291 kts 279°
2026-05-01 10:43 33.87082 10.65834 9123 ft 294 kts 281°
2026-05-01 10:44 33.87669 10.63476 9801 ft 297 kts 294°
2026-05-01 10:44 33.88536 10.61196 10390 ft 306 kts 294°
2026-05-01 10:44 33.89451 10.58784 10555 ft 329 kts 294°
2026-05-01 10:44 33.90433 10.56190 10696 ft 352 kts 294°
2026-05-01 10:45 33.91468 10.53458 11141 ft 362 kts 294°
2026-05-01 10:45 33.92517 10.50691 11839 ft 364 kts 294°
2026-05-01 10:45 33.93571 10.47924 12614 ft 364 kts 294°
2026-05-01 10:45 33.94628 10.45150 13358 ft 365 kts 294°
2026-05-01 10:46 33.95689 10.42359 14036 ft 368 kts 294°
2026-05-01 10:46 33.96754 10.39545 14693 ft 370 kts 293°
2026-05-01 10:46 33.97825 10.36716 15339 ft 372 kts 293°
2026-05-01 10:46 33.98900 10.33871 15959 ft 374 kts 293°
2026-05-01 10:47 33.99978 10.31008 16560 ft 376 kts 292°
2026-05-01 10:47 34.01060 10.28125 17152 ft 378 kts 292°
2026-05-01 10:47 34.02148 10.25230 17731 ft 380 kts 292°
2026-05-01 10:47 34.03246 10.22321 18276 ft 382 kts 292°
2026-05-01 10:48 34.04351 10.19396 18829 ft 385 kts 292°
2026-05-01 10:48 34.05457 10.16452 19317 ft 388 kts 292°
2026-05-01 10:48 34.06573 10.13478 19799 ft 391 kts 292°
2026-05-01 10:48 34.07698 10.10482 20269 ft 394 kts 292°
2026-05-01 10:49 34.08831 10.07464 20725 ft 396 kts 292°
2026-05-01 10:49 34.09971 10.04423 21156 ft 399 kts 292°
2026-05-01 10:49 34.11120 10.01362 21629 ft 402 kts 292°
2026-05-01 10:49 34.12273 9.98280 22072 ft 404 kts 292°
2026-05-01 10:50 34.13431 9.95176 22503 ft 407 kts 292°
2026-05-01 10:50 34.14595 9.92050 22927 ft 410 kts 292°
2026-05-01 10:50 34.15765 9.88902 23343 ft 412 kts 292°
2026-05-01 10:50 34.16943 9.85735 23744 ft 415 kts 292°
2026-05-01 10:51 34.18125 9.82554 24127 ft 417 kts 292°
2026-05-01 10:51 34.19322 9.79340 24505 ft 420 kts 292°
2026-05-01 10:51 34.20525 9.76123 24878 ft 422 kts 292°
2026-05-01 10:51 34.21738 9.72881 25237 ft 425 kts 292°
2026-05-01 10:52 34.22953 9.69616 25601 ft 427 kts 292°
2026-05-01 10:52 34.24170 9.66331 25943 ft 430 kts 292°
2026-05-01 10:52 34.25391 9.63024 26277 ft 432 kts 292°
2026-05-01 10:52 34.26619 9.59694 26608 ft 434 kts 292°
2026-05-01 10:53 34.27850 9.56350 26932 ft 436 kts 292°
2026-05-01 10:53 34.29086 9.52989 27242 ft 439 kts 292°
2026-05-01 10:53 34.30327 9.49611 27551 ft 441 kts 292°
2026-05-01 10:53 34.31577 9.46218 27880 ft 442 kts 292°
2026-05-01 10:54 34.32833 9.42811 28184 ft 445 kts 292°
2026-05-01 10:54 34.34094 9.39386 28472 ft 447 kts 292°
2026-05-01 10:54 34.35354 9.35955 28816 ft 447 kts 292°
2026-05-01 10:54 34.36612 9.32526 29230 ft 445 kts 292°
2026-05-01 10:55 34.37866 9.29108 29608 ft 444 kts 292°
2026-05-01 10:55 34.39117 9.25694 29989 ft 443 kts 292°
2026-05-01 10:55 34.40360 9.22289 30378 ft 442 kts 292°
2026-05-01 10:55 34.41598 9.18892 30752 ft 440 kts 292°
2026-05-01 10:56 34.42831 9.15502 31135 ft 439 kts 292°
2026-05-01 10:56 34.44060 9.12123 31527 ft 438 kts 292°
2026-05-01 10:56 34.45287 9.08753 31906 ft 436 kts 292°
2026-05-01 10:56 34.46509 9.05393 32293 ft 435 kts 292°
2026-05-01 10:57 34.47724 9.02048 32668 ft 434 kts 292°
2026-05-01 10:57 34.48936 8.98709 33057 ft 432 kts 292°
2026-05-01 10:57 34.50142 8.95382 33428 ft 430 kts 292°
2026-05-01 10:57 34.51343 8.92064 33792 ft 429 kts 292°
2026-05-01 10:58 34.52538 8.88758 34053 ft 428 kts 292°
2026-05-01 10:58 34.54915 8.82183 34110 ft 424 kts 292°
2026-05-01 10:59 34.57267 8.75643 34109 ft 423 kts 292°
2026-05-01 10:59 34.59616 8.69102 34111 ft 422 kts 292°
2026-05-01 11:00 34.61964 8.62568 34110 ft 422 kts 292°
2026-05-01 11:00 34.64308 8.56031 34109 ft 422 kts 292°
2026-05-01 11:01 34.66648 8.49484 34106 ft 422 kts 292°
2026-05-01 11:01 34.68976 8.42949 34103 ft 421 kts 292°
2026-05-01 11:02 34.71303 8.36409 34101 ft 422 kts 292°
2026-05-01 11:02 34.73627 8.29862 34104 ft 422 kts 292°
2026-05-01 11:03 34.75952 8.23310 34107 ft 422 kts 292°
2026-05-01 11:03 34.78275 8.16751 34109 ft 422 kts 291°
2026-05-01 11:04 34.80590 8.10186 34115 ft 422 kts 291°
2026-05-01 11:04 34.82516 8.04724 34118 ft 422 kts 291°
2026-05-01 11:05 34.85204 7.97091 34132 ft 422 kts 291°
2026-05-01 11:05 34.87511 7.90500 34122 ft 424 kts 292°
2026-05-01 11:06 34.89447 7.84954 34127 ft 426 kts 291°
2026-05-01 11:06 34.91769 7.78309 34133 ft 427 kts 291°
2026-05-01 11:07 34.95257 7.68321 34137 ft 427 kts 291°
2026-05-01 11:07 34.97574 7.61646 34143 ft 428 kts 291°
2026-05-01 11:08 34.99896 7.54961 34147 ft 429 kts 291°
2026-05-01 11:09 35.03371 7.44916 34156 ft 429 kts 291°
2026-05-01 11:09 35.05684 7.38200 34158 ft 429 kts 291°
2026-05-01 11:10 35.09153 7.28115 34153 ft 429 kts 291°
2026-05-01 11:10 35.11455 7.21429 34146 ft 430 kts 291°
2026-05-01 11:11 35.13765 7.14678 34148 ft 431 kts 291°
2026-05-01 11:11 35.16067 7.07912 34146 ft 431 kts 291°
2026-05-01 11:12 35.18383 7.01096 34145 ft 432 kts 291°
2026-05-01 11:12 35.20690 6.94301 34149 ft 433 kts 291°
2026-05-01 11:13 35.23008 6.87493 34152 ft 434 kts 291°
2026-05-01 11:13 35.25312 6.80715 34157 ft 435 kts 291°
2026-05-01 11:14 35.27625 6.73883 34154 ft 434 kts 291°
2026-05-01 11:14 35.29929 6.67035 34156 ft 435 kts 290°
2026-05-01 11:15 35.32233 6.60171 34159 ft 436 kts 290°
2026-05-01 11:15 35.34539 6.53305 34166 ft 437 kts 290°
2026-05-01 11:16 35.36844 6.46420 34169 ft 437 kts 290°
2026-05-01 11:16 35.39146 6.39519 34173 ft 438 kts 290°
2026-05-01 11:17 35.41451 6.32604 34177 ft 438 kts 290°
2026-05-01 11:17 35.43753 6.25683 34179 ft 438 kts 290°
2026-05-01 11:18 35.46054 6.18751 34180 ft 439 kts 290°
2026-05-01 11:18 35.48348 6.11810 34182 ft 439 kts 290°
2026-05-01 11:19 35.50640 6.04857 34183 ft 440 kts 290°
2026-05-01 11:19 35.52933 5.97899 34185 ft 440 kts 289°
2026-05-01 11:20 35.55221 5.90921 34171 ft 441 kts 290°
2026-05-01 11:20 35.57520 5.83933 34175 ft 441 kts 290°
2026-05-01 11:21 35.59816 5.76938 34178 ft 442 kts 290°
2026-05-01 11:21 35.62108 5.69928 34183 ft 442 kts 289°
2026-05-01 11:22 35.64388 5.62912 34189 ft 442 kts 289°
2026-05-01 11:22 35.66657 5.55900 34193 ft 442 kts 289°
2026-05-01 11:23 35.68928 5.48879 34195 ft 442 kts 289°
2026-05-01 11:23 35.71206 5.41858 34194 ft 442 kts 289°
2026-05-01 11:24 35.73479 5.34834 34193 ft 442 kts 289°
2026-05-01 11:25 35.76863 5.24284 34192 ft 442 kts 289°
2026-05-01 11:25 35.80248 5.13727 34195 ft 442 kts 289°
2026-05-01 11:26 35.83619 5.03158 34196 ft 442 kts 289°
2026-05-01 11:27 35.85849 4.96147 34201 ft 442 kts 289°
2026-05-01 11:27 35.88099 4.89093 34200 ft 442 kts 289°
2026-05-01 11:28 35.90356 4.81990 34205 ft 442 kts 289°
2026-05-01 11:28 35.92568 4.74981 34207 ft 442 kts 289°
2026-05-01 11:29 35.95903 4.64391 34209 ft 441 kts 288°
2026-05-01 11:30 35.99231 4.53811 34197 ft 440 kts 288°
2026-05-01 11:30 36.01437 4.46758 34193 ft 440 kts 288°
2026-05-01 11:31 36.03639 4.39722 34188 ft 438 kts 288°
2026-05-01 11:31 36.05824 4.32704 34182 ft 438 kts 288°
2026-05-01 11:32 36.08003 4.25685 34178 ft 437 kts 288°
2026-05-01 11:32 36.10176 4.18673 34172 ft 437 kts 288°
2026-05-01 11:33 36.12345 4.11653 34165 ft 437 kts 288°
2026-05-01 11:33 36.14511 4.04626 34162 ft 437 kts 288°
2026-05-01 11:34 36.16669 3.97589 34161 ft 437 kts 288°
2026-05-01 11:34 36.18826 3.90548 34163 ft 438 kts 288°
2026-05-01 11:35 36.20985 3.83514 34167 ft 437 kts 288°
2026-05-01 11:35 36.23143 3.76470 34169 ft 437 kts 288°
2026-05-01 11:36 36.25288 3.69425 34166 ft 437 kts 288°
2026-05-01 11:36 36.27431 3.62386 34165 ft 437 kts 288°
2026-05-01 11:37 36.29565 3.55335 34164 ft 437 kts 287°
2026-05-01 11:37 36.31691 3.48282 34164 ft 437 kts 287°
2026-05-01 11:38 36.33809 3.41275 34165 ft 437 kts 287°
2026-05-01 11:38 36.35952 3.34167 34166 ft 437 kts 287°
2026-05-01 11:39 36.38070 3.27108 34166 ft 437 kts 287°
2026-05-01 11:39 36.40172 3.20100 34165 ft 436 kts 287°
2026-05-01 11:40 36.42282 3.13050 34163 ft 435 kts 287°
2026-05-01 11:40 36.44383 3.05995 34161 ft 435 kts 287°
2026-05-01 11:41 36.46475 2.98936 34155 ft 435 kts 287°
2026-05-01 11:41 36.48567 2.91879 34156 ft 436 kts 287°
2026-05-01 11:42 36.50662 2.84815 34153 ft 436 kts 287°
2026-05-01 11:42 36.52748 2.77742 34154 ft 436 kts 287°
2026-05-01 11:43 36.54816 2.70668 34157 ft 436 kts 287°
2026-05-01 11:43 36.56893 2.63583 34161 ft 436 kts 287°
2026-05-01 11:44 36.60021 2.52946 34169 ft 436 kts 287°
2026-05-01 11:44 36.62092 2.45846 34170 ft 436 kts 287°
2026-05-01 11:45 36.64152 2.38754 34167 ft 436 kts 287°
2026-05-01 11:45 36.66209 2.31649 34167 ft 436 kts 286°
2026-05-01 11:46 36.68261 2.24540 34168 ft 436 kts 286°
2026-05-01 11:46 36.70311 2.17430 34170 ft 436 kts 286°
2026-05-01 11:47 36.72359 2.10313 34172 ft 436 kts 286°
2026-05-01 11:47 36.74405 2.03195 34174 ft 436 kts 286°
2026-05-01 11:48 36.76441 1.96085 34176 ft 436 kts 286°
2026-05-01 11:48 36.78472 1.88963 34177 ft 435 kts 286°
2026-05-01 11:49 36.80502 1.81864 34178 ft 435 kts 287°
2026-05-01 11:49 36.82525 1.74757 34179 ft 434 kts 286°
2026-05-01 11:50 36.84536 1.67654 34179 ft 434 kts 287°
2026-05-01 11:50 36.86208 1.61749 34177 ft 434 kts 287°
2026-05-01 11:51 36.88215 1.54652 34181 ft 434 kts 286°
2026-05-01 11:51 36.90212 1.47535 34187 ft 434 kts 286°
2026-05-01 11:52 36.92202 1.40418 34195 ft 434 kts 287°
2026-05-01 11:52 36.94192 1.33307 34198 ft 433 kts 286°
2026-05-01 11:53 36.96175 1.26206 34201 ft 433 kts 286°
2026-05-01 11:53 36.98164 1.19064 34196 ft 432 kts 286°
2026-05-01 11:54 37.00114 1.12017 34192 ft 431 kts 286°
2026-05-01 11:54 37.02077 1.04928 34191 ft 431 kts 286°
2026-05-01 11:55 37.04044 0.97841 34187 ft 431 kts 287°
2026-05-01 11:55 37.06001 0.90754 34184 ft 431 kts 287°
2026-05-01 11:56 37.07503 0.83524 34182 ft 429 kts 280°
2026-05-01 11:56 37.08751 0.76235 34183 ft 428 kts 279°
2026-05-01 11:57 37.09978 0.68928 34185 ft 429 kts 280°
2026-05-01 11:57 37.11210 0.61621 34187 ft 428 kts 280°
2026-05-01 11:58 37.12446 0.54321 34187 ft 428 kts 280°
2026-05-01 11:59 37.14297 0.43370 34186 ft 428 kts 279°
2026-05-01 11:59 37.15526 0.36061 34188 ft 429 kts 279°
2026-05-01 12:00 37.17358 0.25091 34187 ft 429 kts 279°
2026-05-01 12:01 37.19183 0.14112 34187 ft 429 kts 279°
2026-05-01 12:01 37.20393 0.06789 34186 ft 429 kts 279°
2026-05-01 12:02 37.21593 -0.00533 34185 ft 428 kts 279°
2026-05-01 12:02 37.22788 -0.07840 34213 ft 426 kts 280°
2026-05-01 12:03 37.23973 -0.15083 34215 ft 422 kts 281°
2026-05-01 12:03 37.25145 -0.22270 34223 ft 419 kts 281°
2026-05-01 12:04 37.26300 -0.29426 34209 ft 417 kts 281°
2026-05-01 12:04 37.27445 -0.36562 34215 ft 416 kts 281°
2026-05-01 12:05 37.28587 -0.43680 34202 ft 416 kts 281°
2026-05-01 12:05 37.30298 -0.54368 34201 ft 416 kts 281°
2026-05-01 12:06 37.31431 -0.61496 34199 ft 416 kts 281°
2026-05-01 12:06 37.32556 -0.68621 34198 ft 415 kts 281°
2026-05-01 12:07 37.33678 -0.75742 34195 ft 416 kts 281°
2026-05-01 12:07 37.34800 -0.82860 34196 ft 416 kts 281°
2026-05-01 12:08 37.35915 -0.89989 34201 ft 416 kts 281°
2026-05-01 12:08 37.37024 -0.97120 34217 ft 415 kts 281°
2026-05-01 12:09 37.38132 -1.04250 34209 ft 415 kts 281°
2026-05-01 12:09 37.39235 -1.11371 34210 ft 415 kts 281°
2026-05-01 12:10 37.40873 -1.22058 34201 ft 415 kts 281°